TimeMDT,TemperatureF,Dew PointF,Humidity,Sea Level PressureIn,VisibilityMPH,Wind Direction,Wind SpeedMPH,Gust SpeedMPH,PrecipitationIn,Events,Conditions,WindDirDegrees,DateUTC
12:53 AM,72.0,69.1,91,29.77,10.0,SSE,13.8,-,N/A,,Clear,150,2013-07-22 06:53:00
1:53 AM,70.0,69.1,97,29.75,10.0,SSE,11.5,-,N/A,,Clear,160,2013-07-22 07:53:00
2:38 AM,69.8,68.0,94,29.88,7.0,SSE,11.5,-,N/A,,Partly Cloudy,160,2013-07-22 08:38:00
2:53 AM,70.0,69.1,97,29.73,6.0,SSE,12.7,-,N/A,,Mostly Cloudy,160,2013-07-22 08:53:00
3:17 AM,69.8,69.8,100,29.88,2.0,SSE,9.2,-,N/A,,Overcast,150,2013-07-22 09:17:00
3:28 AM,69.8,69.8,100,29.87,1.5,SSE,9.2,-,N/A,,Overcast,160,2013-07-22 09:28:00
3:53 AM,69.1,69.1,100,29.73,1.0,SSE,9.2,-,N/A,,Mist,150,2013-07-22 09:53:00
4:35 AM,69.8,69.8,100,29.88,0.5,SSE,9.2,-,N/A,Fog,Fog,150,2013-07-22 10:35:00
4:42 AM,69.8,68.0,94,29.90,0.5,East,10.4,-,N/A,Fog,Fog,80,2013-07-22 10:42:00
4:51 AM,69.8,68.0,94,29.91,1.0,East,12.7,-,N/A,,Mist,80,2013-07-22 10:51:00
4:53 AM,69.1,68.0,96,29.76,1.2,East,12.7,-,N/A,,Overcast,90,2013-07-22 10:53:00
5:00 AM,69.8,68.0,94,29.91,3.0,East,12.7,-,N/A,,Overcast,90,2013-07-22 11:00:00
5:53 AM,69.1,68.0,96,29.76,8.0,East,15.0,-,N/A,,Overcast,100,2013-07-22 11:53:00
6:21 AM,68.0,66.2,94,29.90,9.0,ESE,15.0,-,N/A,,Unknown,120,2013-07-22 12:21:00
6:53 AM,70.0,64.9,84,29.77,10.0,SE,13.8,24.2,N/A,,Unknown,130,2013-07-22 12:53:00
7:53 AM,73.9,64.0,71,29.78,10.0,SSE,16.1,27.6,N/A,,Clear,150,2013-07-22 13:53:00
8:53 AM,79.0,64.0,60,29.79,10.0,SSE,19.6,26.5,N/A,,Clear,150,2013-07-22 14:53:00
9:53 AM,80.1,60.1,50,29.80,10.0,SE,17.3,29.9,N/A,,Clear,140,2013-07-22 15:53:00
10:53 AM,87.1,57.0,36,29.79,10.0,SE,18.4,27.6,N/A,,Clear,140,2013-07-22 16:53:00
11:53 AM,91.9,53.1,27,29.79,-9999.0,SE,15.0,26.5,N/A,,Clear,130,2013-07-22 17:53:00
12:53 PM,93.9,52.0,24,29.78,10.0,SE,15.0,23.0,N/A,,Unknown,140,2013-07-22 18:53:00
1:53 PM,96.1,54.0,24,29.77,10.0,SE,16.1,24.2,N/A,,Clear,130,2013-07-22 19:53:00
2:53 PM,96.1,57.0,27,29.75,10.0,SE,19.6,25.3,N/A,,Clear,130,2013-07-22 20:53:00
3:53 PM,96.1,57.0,27,29.74,10.0,SE,18.4,24.2,N/A,,Clear,130,2013-07-22 21:53:00
4:53 PM,96.1,55.9,26,29.74,10.0,ESE,13.8,-,N/A,,Clear,120,2013-07-22 22:53:00
5:53 PM,93.9,57.0,29,29.73,10.0,ESE,11.5,-,N/A,,Clear,120,2013-07-22 23:53:00
6:53 PM,91.0,57.0,32,29.74,10.0,ESE,11.5,-,N/A,,Clear,110,2013-07-23 00:53:00
7:53 PM,87.1,57.0,36,29.76,10.0,SE,16.1,-,N/A,,Clear,130,2013-07-23 01:53:00
8:53 PM,82.9,55.0,38,29.78,10.0,ESE,17.3,-,N/A,,Clear,110,2013-07-23 02:53:00
9:53 PM,82.0,55.9,41,29.78,10.0,ESE,20.7,33.4,N/A,,Clear,120,2013-07-23 03:53:00
10:53 PM,75.0,57.9,55,29.79,10.0,SE,12.7,-,N/A,,Clear,130,2013-07-23 04:53:00
11:53 PM,71.1,59.0,66,29.78,10.0,SE,10.4,-,N/A,,Clear,140,2013-07-23 05:53:00